Tracking 30995 objects as of 7-Jul-2025
HD Live streaming from Space Station
objects crossing your sky now

COSMOS 1745

Track COSMOS 1745 now!
10-day predictions
COSMOS 1745 is classified as:


NORAD ID: 16727
Int'l Code: 1986-037A
Perigee: 966.9 km
Apogee: 1,015.2 km
Inclination: 83.0 °
Period: 104.8 minutes
Semi major axis: 7362 km
RCS: 2.3429 m2 (large)
Launch date: May 23, 1986
Source: Commonwealth of Independent States (former USSR) (CIS)
Launch site: PLESETSK MISSILE AND SPACE COMPLEX (PKMTR)
Your satellite tracking list
Your tracking list is empty




NASA's NSSDC Master Catalog

Two Line Element Set (TLE):
1 16727U 86037A   25187.56137213  .00000053  00000-0  39377-4 0  9999
2 16727  82.9587   0.6829 0032797  87.9885 334.4069 13.74383871961686
Source of the keplerian elements: AFSPC